[[{"header":{"parameterUnit":"m.s-1","parameterCategory":1,"la1":30.2991,"la2":30.254,"lo1":-89.0895,"lo2":-89.0444,"dy":0.0017,"dx":0.0017,"nx":28,"ny":28,"refTime":"2024-06-19T03:00:00:Z","depth":0,"parameterNumber":2,"parameterNumberName":"U-component_of_WINDS"},"data":[0,0,0,0,0,0,0,0,0,0,0,0,0,0,0,0,0,0,0,0,0,0,0,0,0,0,0,0,0,0,0,0,0,0,0,0,0,0,0,0,0,0,0,0,0,0,0,0,0,0,0,0,0,0,0,0,0,0,-9.9067,-9.9067,0,-9.9047,-9.9047,-9.9047,-9.8823,-9.8817,-9.8812,-9.8806,-9.8784,-9.8789,-9.8793,0,0,0,0,0,0,0,0,0,0,0,0,0,-9.8913,-9.8917,-9.9067,-9.9067,-9.9067,-9.9047,-9.9047,-9.9047,-9.8824,-9.8817,-9.881,-9.8804,-9.8783,-9.8788,-9.8794,0,0,0,0,0,0,0,0,0,0,0,0,0,-9.8945,-9.8918,-9.9067,-9.8953,-9.8943,-9.9047,-9.9047,-9.9047,-9.8825,-9.8817,-9.8808,-9.88,-9.8781,-9.8788,-9.8795,-9.9006,0,0,-9.8816,-9.8819,0,0,0,0,0,0,0,0,-9.8943,-9.8951,-9.897,-9.8961,-9.895,-9.8929,-9.8984,-9.9033,-9.8827,-9.887,-9.8806,-9.8796,-9.8839,-9.8841,-9.8855,-9.9005,-9.9004,-9.8816,-9.8821,-9.8824,-9.8826,0,0,0,0,0,0,0,-9.8941,-9.895,-9.9059,-9.8971,-9.8959,-9.8903,-9.8898,-9.8992,-9.8902,-9.8865,-9.8849,-9.885,-9.8832,-9.8849,-9.8853,-9.9004,-9.8816,-9.8822,-9.8827,-9.8829,-9.9327,-9.9335,0,0,0,0,0,0,-9.8955,-9.895,-9.906,-9.9059,-9.8926,-9.8913,-9.8907,-9.8944,-9.89,-9.8886,-9.8857,-9.884,-9.8841,-9.8845,-9.8852,-9.9095,-9.8824,-9.883,-9.8834,-9.9318,-9.9329,-9.9338,0,0,0,0,0,0,-9.8953,-9.8967,-9.9061,-9.9,-9.9008,-9.8924,-9.8967,-9.8948,-9.8965,-9.8894,-9.8877,-9.8892,-9.8835,-9.8842,-9.8969,-9.9092,-9.8833,-9.884,-9.9307,-9.9321,-9.9334,-9.9587,0,0,0,0,0,0,-9.8949,-9.8968,-9.9047,-9.9004,-9.9012,-9.918,-9.8975,-9.8954,-9.8978,-9.8955,-9.8922,-9.8908,-9.8829,-9.896,-9.8977,-9.9097,-9.8845,-9.9296,-9.9313,-9.9329,-9.9567,-9.9607,-9.9642,0,0,0,0,0,-9.8945,-9.9119,-9.9052,-9.9067,-9.9109,-9.9187,-9.9192,-9.9097,-9.8989,-9.9068,-9.9022,-9.8909,-9.9077,-9.8975,-9.8992,-9.9116,-9.9287,-9.9308,-9.9328,-9.955,-9.9599,-9.9641,0,0,0,0,0,0,-9.9177,-9.9111,-9.9036,-9.9201,-9.9202,-9.9149,-9.9245,-9.9152,-9.9183,-9.916,-9.9041,-9.9036,-9.9182,-9.9162,-9.905,-9.9319,-9.9162,-9.9187,-9.9326,-9.9372,-9.9409,-9.9409,-9.8851,0,0,0,0,0,-9.9248,-9.9317,-9.9255,-9.9407,-9.9411,-9.933,-9.936,-9.9288,-9.9283,-9.9281,-9.9245,-9.9245,-9.9297,-9.9334,-9.9378,-9.9564,-9.9553,-9.9658,-9.9695,-9.9726,-9.9748,-9.9845,-9.989,-9.9405,-9.9405,-9.9405,0,0,-9.9394,-9.9367,-9.9417,-9.9453,-9.9445,-9.9519,-9.9331,-9.9416,-9.947,-9.9294,-9.9412,-9.9387,-9.9378,-9.9537,-9.9604,-9.9524,-9.988,-9.9752,-9.9778,-9.9782,-9.987,-9.9916,-9.9957,-9.9419,-9.9416,-9.9414,0,0,-9.9698,-9.9685,-9.9809,-9.9806,-9.9796,-9.9741,-9.9772,-9.9735,-9.9711,-9.9828,-9.9698,-9.976,-9.9853,-9.9852,-9.9864,-10.0173,-10.0069,-10.0191,-10.0384,-10.048,-10.0518,-10.0552,-10.066,-10.0701,-10.0213,-10.0214,-10.0214,0,-9.988,-9.9986,-9.9885,-9.998,-10.0,-9.9847,-9.9972,-9.9973,-9.9979,-9.9996,-9.9907,-10.0021,-10.0005,-10.016,-10.0236,-10.0252,-10.0282,-10.0192,-10.0521,-10.0554,-10.0583,-10.0685,-10.0726,-10.0228,-10.0227,-10.0225,-10.0224,0,-10.0211,-10.0287,-10.0389,-10.04,-10.0431,-10.0541,-10.0457,-10.0501,-10.0428,-10.0383,-10.0505,-10.048,-10.0517,-10.055,-10.0478,-10.0696,-10.0647,-10.0542,-10.0382,-10.0646,-10.0739,-10.0778,-10.0249,-10.0244,-10.024,-10.0236,0,0,-10.0656,-10.0612,-10.0651,-10.0654,-10.0634,-10.069,-10.0795,-10.0832,-10.0872,-10.0882,-10.0965,-10.105,-10.0953,-10.0967,-10.0895,-10.098,-10.1224,-10.0863,-10.0861,-10.093,-10.1462,-10.1539,-10.1586,-10.1157,-10.1164,-10.117,-10.1462,0,-10.0947,-10.1121,-10.1035,-10.1219,-10.1288,-10.1146,-10.1236,-10.1234,-10.1196,-10.1249,-10.1206,-10.1267,-10.1135,-10.1143,-10.1221,-10.1178,-10.1329,-10.1156,-10.1232,-10.1236,-10.1236,-10.1635,-10.1716,-10.1993,-10.1498,-10.1504,-10.1509,0,-10.1308,-10.1335,-10.1528,-10.1496,-10.1522,-10.1605,-10.1632,-10.1685,-10.1681,-10.1647,-10.1665,-10.1574,-10.1673,-10.1519,-10.1654,-10.1538,-10.1565,-10.155,-10.1558,-10.1559,-10.1386,-10.1644,-10.2079,-10.212,-10.1566,-10.1561,-10.1557,0,-10.1611,-10.1696,-10.1822,-10.1829,-10.1797,-10.1858,-10.1847,-10.1835,-10.1863,-10.1888,-10.1905,-10.1942,-10.1961,-10.1992,-10.1913,-10.1807,-10.2059,-10.1898,-10.2033,-10.2035,-10.2089,-10.2086,-10.2531,-10.2112,-10.2112,-10.2111,-10.211,0,-10.1943,-10.2066,-10.1957,-10.2035,-10.2169,-10.2069,-10.2204,-10.2178,-10.2169,-10.2238,-10.2118,-10.2186,-10.2079,-10.2137,-10.2076,-10.2197,-10.2208,-10.2183,-10.2164,-10.2192,-10.2195,-10.2205,-10.2183,-10.2122,-10.2119,-10.2117,-10.2115,0,-10.2302,-10.2235,-10.2362,-10.2323,-10.2315,-10.2416,-10.2381,-10.2451,-10.2406,-10.2496,-10.2511,-10.244,-10.2502,-10.2428,-10.2483,-10.2442,-10.2606,-10.2561,-10.2608,-10.2594,-10.2733,-10.272,-10.3197,-10.3255,-10.2802,-10.2807,-10.281,0,-10.2517,-10.2608,-10.2579,-10.2617,-10.2614,-10.2678,-10.2706,-10.2614,-10.2649,-10.2652,-10.2722,-10.2774,-10.281,-10.2916,-10.2869,-10.2911,-10.2864,-10.3029,-10.2869,-10.2894,-10.2864,-10.2858,-10.2866,-10.306,-10.3066,-10.307,-10.3074,0,-10.2904,-10.2867,-10.2914,-10.2951,-10.2989,-10.3013,-10.3027,-10.3066,-10.2969,-10.3015,-10.3077,-10.3106,-10.3163,-10.3216,-10.3246,-10.3234,-10.3139,-10.3125,-10.3158,-10.3185,-10.3208,-10.3196,-10.2694,-10.3113,-10.3109,-10.3107,-10.3104,-10.3103,-10.3195,-10.327,-10.3262,-10.3318,-10.332,-10.3338,-10.3401,-10.3366,-10.3416,-10.3456,-10.3399,-10.3477,-10.3471,-10.3501,-10.3501,-10.3561,-10.349,-10.3538,-10.355,-10.3563,-10.3583,-10.3202,-10.3566,-10.3565,-10.3564,-10.3563,-10.3562,0,-10.3574,-10.3563,-10.3617,-10.3642,-10.3687,-10.3596,-10.3608,-10.3651,-10.3721,-10.3725,-10.3764,-10.3837,-10.3888,-10.3848,-10.3891,-10.3946,-10.3903,-10.396,-10.3953,-10.3952,-10.3645,-10.3611,-10.3994,-10.3994,-10.3994,-10.3994,-10.3994,-10.3994,-10.3777,-10.3898,-10.3861,-10.3983,-10.397,-10.4046,-10.4061,-10.4077,-10.4079,-10.4166,-10.4208,-10.4182,-10.4168,-10.421,-10.4253,-10.424,-10.426,-10.4333,-10.4304,-10.4017,-10.3974,-10.3933,-10.3901,-10.4339,-10.4339,-10.4606,-10.4608,-10.461]},{"header":{"parameterUnit":"m.s-1","parameterCategory":1,"la1":30.2991,"la2":30.254,"lo1":-89.0895,"lo2":-89.0444,"dy":0.0017,"dx":0.0017,"nx":28,"ny":28,"refTime":"2024-06-19T03:00:00:Z","depth":0,"parameterNumber":3,"parameterNumberName":"V-component_of_WINDS"},"data":[0,0,0,0,0,0,0,0,0,0,0,0,0,0,0,0,0,0,0,0,0,0,0,0,0,0,0,0,0,0,0,0,0,0,0,0,0,0,0,0,0,0,0,0,0,0,0,0,0,0,0,0,0,0,0,0,0,0,1.0629,1.0629,0,1.065,1.065,1.065,1.071,1.0712,1.0713,1.0714,1.073,1.0729,1.0728,0,0,0,0,0,0,0,0,0,0,0,0,0,1.0637,1.0637,1.0629,1.0629,1.0629,1.065,1.065,1.065,1.071,1.0712,1.0713,1.0715,1.073,1.0729,1.0728,0,0,0,0,0,0,0,0,0,0,0,0,0,1.0643,1.0636,1.0629,1.0662,1.0665,1.065,1.065,1.065,1.071,1.0712,1.0714,1.0716,1.073,1.0729,1.0728,1.068,0,0,1.0724,1.0723,0,0,0,0,0,0,0,0,1.0643,1.0643,1.0657,1.066,1.0663,1.068,1.0659,1.066,1.0709,1.0693,1.0714,1.0717,1.0711,1.0711,1.0711,1.0681,1.0681,1.0724,1.0723,1.0722,1.0722,0,0,0,0,0,0,0,1.0642,1.0642,1.0637,1.0657,1.0661,1.0675,1.0678,1.0659,1.069,1.0694,1.0699,1.0701,1.0713,1.0712,1.0711,1.0682,1.0724,1.0723,1.0722,1.0721,1.0615,1.0613,0,0,0,0,0,0,1.0638,1.0641,1.0636,1.0638,1.0658,1.0673,1.0676,1.0672,1.0691,1.0695,1.0699,1.0703,1.0713,1.0713,1.0712,1.0658,1.0722,1.0721,1.0721,1.0617,1.0615,1.0612,0,0,0,0,0,0,1.0638,1.0637,1.0635,1.0641,1.0642,1.0671,1.0666,1.0672,1.067,1.0694,1.07,1.0692,1.0715,1.0714,1.0688,1.0659,1.0721,1.072,1.062,1.0616,1.0614,1.0549,0,0,0,0,0,0,1.0638,1.0636,1.0619,1.064,1.0641,1.0612,1.0664,1.0671,1.0669,1.0675,1.0689,1.0693,1.0716,1.069,1.0687,1.0659,1.0719,1.0622,1.0618,1.0615,1.0554,1.0544,1.0536,0,0,0,0,0,1.0638,1.0598,1.0618,1.0617,1.062,1.061,1.0611,1.0639,1.0666,1.0649,1.0665,1.0693,1.0664,1.0687,1.0684,1.0655,1.0624,1.0619,1.0615,1.0558,1.0546,1.0536,0,0,0,0,0,0,1.057,1.0601,1.0623,1.059,1.0597,1.062,1.0599,1.0625,1.0623,1.0629,1.0663,1.0666,1.0635,1.0643,1.0668,1.0611,1.0649,1.0643,1.0606,1.0595,1.0586,1.0584,1.0718,0,0,0,0,0,1.0551,1.0542,1.057,1.0537,1.054,1.0569,1.0565,1.0587,1.0595,1.0598,1.0612,1.0617,1.061,1.0603,1.0597,1.0556,1.056,1.0535,1.0526,1.0519,1.0513,1.0492,1.0482,1.0597,1.0597,1.0597,0,0,1.0512,1.0528,1.052,1.0524,1.0532,1.0521,1.0571,1.0556,1.0547,1.0595,1.0572,1.0583,1.0591,1.0558,1.0544,1.0563,1.0482,1.0513,1.0507,1.0505,1.0487,1.0476,1.0466,1.0594,1.0595,1.0595,0,0,1.0434,1.0446,1.0421,1.043,1.0443,1.0463,1.0457,1.0477,1.0487,1.0465,1.0501,1.0491,1.0477,1.0482,1.0482,1.0411,1.0437,1.0408,1.036,1.034,1.0331,1.0323,1.0297,1.0287,1.0403,1.0403,1.0403,0,1.0383,1.0369,1.0404,1.0388,1.0389,1.0436,1.041,1.0416,1.0425,1.0424,1.0447,1.0432,1.0441,1.041,1.0393,1.0392,1.0385,1.0405,1.033,1.0322,1.0315,1.029,1.0281,1.0399,1.0399,1.04,1.04,0,1.0305,1.0294,1.0272,1.0284,1.0283,1.0261,1.0293,1.0287,1.0311,1.0328,1.0306,1.0319,1.0317,1.0312,1.0333,1.0284,1.0296,1.0324,1.0362,1.03,1.0277,1.0268,1.0394,1.0395,1.0396,1.0397,0,0,1.0181,1.0216,1.0207,1.0213,1.0233,1.0225,1.0207,1.0208,1.0202,1.0208,1.0193,1.0182,1.0208,1.0209,1.0232,1.0214,1.0157,1.0244,1.0245,1.0226,1.0104,1.0082,1.007,1.0176,1.0174,1.0173,1.0103,0,1.0107,1.0079,1.0112,1.0076,1.0067,1.0113,1.0098,1.0107,1.0124,1.0118,1.0136,1.0128,1.0164,1.0165,1.015,1.0167,1.0132,1.0173,1.016,1.0159,1.0155,1.0059,1.0035,0.9968,1.0094,1.0093,1.0092,0,1.0016,1.0021,0.9985,1.001,1.0007,0.9992,0.9997,0.9991,1.0004,1.0017,1.002,1.0049,1.0032,1.0072,1.0049,1.0075,1.0073,1.0081,1.0079,1.0077,1.012,1.0052,0.9947,0.9936,1.0079,1.008,1.0081,0,0.9928,0.9926,0.9905,0.9909,0.9937,0.9926,0.9937,0.9952,0.9951,0.9955,0.9955,0.9956,0.9956,0.9956,0.9984,1.001,0.9957,0.9999,0.9966,0.9965,0.995,0.995,0.9841,0.9952,0.9952,0.9952,0.9952,0,0.9841,0.9817,0.9866,0.9852,0.9827,0.9866,0.984,0.9855,0.9869,0.9859,0.9899,0.9888,0.9927,0.992,0.9942,0.9919,0.9919,0.9929,0.9934,0.9924,0.9923,0.9921,0.9925,0.9949,0.995,0.995,0.9951,0,0.9737,0.977,0.9749,0.9779,0.9786,0.9766,0.9791,0.978,0.9801,0.9788,0.9787,0.9819,0.9813,0.9843,0.9841,0.9856,0.9822,0.9836,0.9818,0.9822,0.9787,0.9789,0.9671,0.9658,0.9778,0.9777,0.9776,0,0.9678,0.9662,0.9691,0.9688,0.9698,0.9693,0.9693,0.9732,0.973,0.9746,0.9732,0.9731,0.9731,0.972,0.9742,0.9742,0.9756,0.9715,0.9755,0.9746,0.9754,0.9754,0.9752,0.9705,0.9703,0.9702,0.9701,0,0.957,0.9588,0.9588,0.9595,0.9595,0.9601,0.961,0.9605,0.9647,0.9643,0.964,0.964,0.9642,0.9639,0.9644,0.9654,0.9684,0.9689,0.9681,0.9669,0.9659,0.9663,0.9793,0.969,0.9691,0.9692,0.9693,0.9693,0.9487,0.9474,0.9494,0.9493,0.9505,0.9513,0.9504,0.9526,0.9524,0.9529,0.9552,0.9545,0.956,0.957,0.9578,0.9571,0.9591,0.9579,0.9576,0.9572,0.9566,0.9662,0.9572,0.9573,0.9573,0.9573,0.9574,0,0.938,0.9396,0.9395,0.9408,0.9408,0.944,0.9452,0.9449,0.9442,0.9455,0.9456,0.9452,0.9451,0.9475,0.9477,0.9467,0.9481,0.9466,0.9466,0.9468,0.9549,0.9555,0.9455,0.9455,0.9455,0.9455,0.9455,0.9455,0.9324,0.9306,0.9326,0.9314,0.933,0.9324,0.9328,0.9336,0.9347,0.9341,0.9342,0.9359,0.9376,0.938,0.938,0.9387,0.9385,0.9365,0.9376,0.9451,0.9462,0.9473,0.9479,0.9365,0.9365,0.9296,0.9295,0.9295]}]]